Погода в Десятниково

Россия / Республика Бурятия     51°25′05″N   107°27′00″E
темп.,
°C
ветер,
м/с
пор.,
м/с
влажн.,
%
обл.,
%
осадки,
мм/ч
давл.,
гПа
погр.,
м
21 апреля, ср
ср2123:00+1ссз2666100 0.0 1009342
02:00−1с227473 0.0 101045
05:00−3с22845 0.0 101230
08:000ссз4867100 0.0 1014703
11:00+2ссз7947100 0.0 10161022
14:00+2с91048100 0.0 10171251
17:00+1с8947100 0.0 10181295
20:00−1с61048100 0.0 10211067
22 апреля, чт
чт2223:00−1с61046100 0.1 10231111
02:00−3ссз5963100 0.1 10261055
05:00−5с3882100 0.3 1027620
08:00−3с4857100 0.3 1028744
11:00+1с5633100 0.0 10281209
14:00+3с6629100 0.0 10271497
17:00−1ссз7852100 0.5 10311065
20:00−2с5941100 0.6 1034841
23 апреля, пт
пт2323:00−3с3850100 0.0 1036479
02:00−4ссз2562100 0.0 1039240
05:00−6с2269100 0.0 104141
08:00−3с3551100 0.0 1043427
11:00+1ссв4535100 0.0 1041851
14:00+5с4529100 0.0 10391521
17:00+6с4428100 0.0 10381688
20:00+2ссз4644100 0.0 1040339
24 апреля, сб
сб2423:000ссз2450100 0.0 1041262
02:00−1с2355100 0.0 104177
05:00−2ссв236097 0.0 104083
08:00+1ссв2353100 0.0 1039243
11:00+7св3435100 0.0 1034966
14:00+12в2432100 0.0 10281575
17:00+13юв3437100 0.0 10251614
20:00+10в2255100 0.0 102413
25 апреля, вс
вс2523:00+7в116999 0.0 102311
02:00+5ссв117785 0.0 102111
05:00+5св2274100 0.0 101829
08:00+7ссв2253100 0.0 1017268
11:00+7ссз1252100 0.1 1015121
14:00+6з2257100 0.2 1015290
17:00+2сз3498100 0.7 1016337
20:00+1ссз1197100 1.9 1018126